Location: Morlupo
(42.1333°N, 12.5000°E)
Time: 16:12:18
(UTC+00:00)

H-2A R/B - Pass Details

Date: 18 September 2020
Orbit: 734 x 836 km, 98.2° (Epoch: 25 October)

Event Time Altitude Azimuth Distance (km) Brightness Sun altitude
Rises 17:32:33 0° 142° (SE) 3,157 4.8 -4.3°
Reaches altitude 10° 17:34:57 10° 133° (SE) 2,246 4.0 -4.7°
Maximum altitude 17:39:26 36° 68° (ENE) 1,184 2.6 -5.6°
Drops below altitude 10° 17:44:00 10° 4° (N) 2,303 4.5 -6.4°
Sets 17:46:29 0° 356° (N) 3,249 5.4 -6.9°
